Weather History for NW Arkansas Airport, AR

Change the Weather History Date:

Friday, December 21, 2012

  Actual Average Record
Temperature  
Mean Temperature 34 °F -  
Max Temperature 48 °F - - ()
Min Temperature 21 °F - - ()
Degree Days  
Heating Degree Days 30    
Moisture  
Dew Point 18 °F    
Average Humidity 55    
Maximum Humidity 81    
Minimum Humidity 28    
Precipitation  
Precipitation 0.00 in - - ()
Sea Level Pressure  
Sea Level Pressure 30.32 in    
Wind  
Wind Speed 3 mph (SW)    
Max Wind Speed 6 mph    
Max Gust Speed -    
Visibility 10 miles    
Events      
T = Trace of Precipitation, MM = Missing Value Source: NWS Daily Summary

Daily Weather History Graph

Daily Weather History Graph

Search for Another Location

Airport:

Trip Planner

Search our weather history database for the weather conditions in past years. The results will help you decide how hot, cold, wet, or windy it might be!

Date:

Astronomy

Dec. 21, 2012 Rise Set
Actual Time 7:25 AM CST 5:06 PM CST
Civil Twilight 6:56 AM CST 5:35 PM CST
Nautical Twilight 6:24 AM CST 6:07 PM CST
Astronomical Twilight 5:52 AM CST 6:38 PM CST
Moon 12:47 PM CST (12/21) 1:19 AM CST (12/21)
Length of Visible Light 10h 38m
Length of Day
9h 41m
Waxing Gibbous, 65% of the Moon is Illuminated
Dec 21
Waxing Gibbous
Dec 28
Full
Jan 4
Last Quarter
Jan 11
New
Jan 18
First Quarter

Hourly Weather History & Observations

Time (CST) Temp. Windchill Dew Point Humidity Pressure Visibility Wind Dir Wind Speed Gust Speed Precip Events Conditions
12:53 AM 26.1 °F 20.5 °F 15.1 °F 63% 30.31 in 10.0 mi WSW 4.6 mph - N/A   Clear
1:53 AM 25.0 °F 20.7 °F 15.1 °F 66% 30.32 in 10.0 mi WSW 3.5 mph - N/A   Clear
2:53 AM 25.0 °F - 15.1 °F 66% 30.32 in 10.0 mi Calm Calm - N/A   Clear
3:53 AM 23.0 °F 18.4 °F 15.1 °F 72% 30.33 in 10.0 mi SW 3.5 mph - N/A   Clear
4:53 AM 21.0 °F 13.4 °F 15.1 °F 78% 30.34 in 10.0 mi SW 5.8 mph - N/A   Clear
5:53 AM 21.9 °F 15.7 °F 15.1 °F 75% 30.35 in 10.0 mi WSW 4.6 mph - N/A   Clear
6:53 AM 21.0 °F 13.4 °F 16.0 °F 81% 30.36 in 10.0 mi West 5.8 mph - N/A   Clear
7:53 AM 24.1 °F - 17.1 °F 75% 30.37 in 10.0 mi Calm Calm - N/A   Clear
8:53 AM 28.0 °F - 21.0 °F 75% 30.38 in 10.0 mi Calm Calm - N/A   Clear
9:53 AM 32.0 °F - 21.9 °F 66% 30.39 in 10.0 mi Calm Calm - N/A   Clear
10:53 AM 37.9 °F 35.5 °F 19.0 °F 47% 30.39 in 10.0 mi West 3.5 mph - N/A   Clear
11:53 AM 42.1 °F 40.2 °F 18.0 °F 38% 30.37 in 10.0 mi Variable 3.5 mph - N/A   Clear
12:53 PM 45.0 °F 42.6 °F 15.1 °F 30% 30.34 in 10.0 mi Variable 4.6 mph - N/A   Clear
1:53 PM 48.0 °F - 16.0 °F 28% 30.32 in 10.0 mi SSW 4.6 mph - N/A   Clear
2:53 PM 48.9 °F - 18.0 °F 29% 30.29 in 10.0 mi ESE 3.5 mph - N/A   Clear
3:53 PM 48.9 °F - 19.0 °F 31% 30.28 in 10.0 mi SSE 4.6 mph - N/A   Clear
4:53 PM 46.0 °F - 19.0 °F 34% 30.28 in 10.0 mi Calm Calm - N/A   Clear
5:53 PM 41.0 °F - 19.0 °F 41% 30.29 in 10.0 mi Calm Calm - N/A   Clear
6:53 PM 39.9 °F - 18.0 °F 41% 30.30 in 10.0 mi Calm Calm - N/A   Clear
7:53 PM 37.0 °F - 19.9 °F 50% 30.31 in 10.0 mi Calm Calm - N/A   Clear
8:53 PM 34.0 °F - 19.9 °F 56% 30.30 in 10.0 mi Calm Calm - N/A   Clear
9:53 PM 34.0 °F - 19.0 °F 54% 30.29 in 10.0 mi Calm Calm - N/A   Clear
10:53 PM 30.9 °F - 19.0 °F 61% 30.28 in 10.0 mi Calm Calm - N/A   Clear
11:53 PM 30.9 °F 27.5 °F 19.9 °F 64% 30.27 in 10.0 mi SSE 3.5 mph - N/A   Clear